Regional Weather Roundup
Issued by NWS

Home | Current Version | Previous Version | Text Only | Print | Product List | Glossary Off
Versions: 1 2 3 4 5 6 7 8 9 10 11 12 13 14 15 16 17 18 19 20 21 22 23 24 25 26 27 28 29 30 31 32 33 34 35 36 37 38 39 40 41 42 43 44 45 46 47 48 49 50

000
ASUS43 KMPX 111401
RWRMN
WEATHER ROUNDUP FOR MINNESOTA
NATIONAL WEATHER SERVICE TWIN CITIES/CHANHASSEN MN
900 AM CDT FRI JUL 11 2014


NOTE: "FAIR" INDICATES FEW OR NO CLOUDS BELOW 12,000 FEET WITH NO
SIGNIFICANT WEATHER AND/OR OBSTRUCTIONS TO VISIBILITY. N/A MEANS
CURRENT SKY AND/OR WEATHER CONDITIONS ARE NOT AVAILABLE.

MNZ060>063-068>070-111500-
   Twin Cities Metro

CITY           SKY/WX    TMP DP  RH WIND       PRES   REMARKS
TWIN CITIES    TSTM      68  64  87 S9G28     30.02R FOG
ST PAUL        TSTM      64  63  96 S22       30.01S VSB 1/2
CRYSTAL        RAIN      69  65  86 S13       29.98F FOG
BLAINE         LGT RAIN  68  66  94 S9        29.99F
LAKEVILLE      CLOUDY    63  61  94 S13G18    30.00S
EDEN PRAIRIE   TSTM      67  65  93 VRB3      30.02R VSB 1/2
SOUTH ST PAUL  CLOUDY    67  62  84 NW10      30.06R
LAKE ELMO      HVY RAIN  64  63  94 S20       30.03F
$$
MNZ001>005-007-008-013>017-022>024-027-028-111500-
   Northwest Minnesota

CITY           SKY/WX    TMP DP  RH WIND       PRES   REMARKS
BEMIDJI        CLOUDY    69  65  88 S6        29.87R
HALLOCK        SUNNY     72  66  83 W9        29.83R
ROSEAU         MOSUNNY   73  66  78 SW9       29.82R
WARROAD        SUNNY     72  70  94 SW8       29.81F
THIEF RVR FALL   N/A    N/A N/A N/A MISG        N/A
CROOKSTON      SUNNY     73  70  88 SW6       29.84S
FOSSTON        CLOUDY    73  66  78 SW9       29.86S
DETROIT LAKES  CLOUDY    72  68  88 S8        29.88S
MOORHEAD       SUNNY     75  73  94 SW6       29.84S
PARK RAPIDS    CLOUDY    68  66  93 S8        29.89R
$$
MNZ006-009>011-018-025>026-111500-
   North Central Minnesota

CITY           SKY/WX    TMP DP  RH WIND       PRES   REMARKS
BAUDETTE       CLOUDY    72  67  84 S7        29.83F
FLAG ISLAND    SUNNY     70  66  88 S12       29.79F
INTL FALLS     CLOUDY    69  64  84 S8        29.85S
LONGVILLE      CLOUDY    68  64  88 S5        29.90R
GRAND RAPIDS   CLOUDY    66  63  88 S10       29.90S
CRANE LAKE     CLOUDY    64  63  94 CALM      29.89F
ORR            CLOUDY    66  63  88 S6        29.86F
COOK           CLOUDY    66  64  94 S7        29.90S
$$
MNZ012-019>021-037-111500-
   Northeast Minnesota

CITY           SKY/WX    TMP DP  RH WIND       PRES   REMARKS
DULUTH         CLOUDY    65  61  87 S16       29.94S
ELY            CLOUDY    63  61  94 S8        29.92R
HIBBING        CLOUDY    67  63  87 S6        29.91S
EVELETH        CLOUDY    63  63 100 S7        29.92F
DULUTH HARBOR  CLOUDY    57  55  94 NE8       29.95S
TWO HARBORS    CLOUDY    59  54  82 CALM      29.94R
SILVER BAY     PTSUNNY   59  59 100 CALM      29.94S
GRAND MARAIS     N/A     48  46  93 E7        29.97F
G MARAIS ARPRT LGT RAIN  61  57  88 S8        30.00F
$$
MNZ029>031-032-039>041-046>048-054>057-064-111500-
   West Central Minnesota

CITY           SKY/WX    TMP DP  RH WIND       PRES   REMARKS
FERGUS FALLS   CLOUDY    72  70  94 S7        29.86S
WHEATON        SUNNY     73  66  78 CALM      29.88S
MORRIS         SUNNY     73  70  88 S8        29.88S
ALEXANDRIA     CLOUDY    70  67  90 S10       29.91S
ELBOW LAKE     CLOUDY    72  68  88 S8        29.87S
WADENA         PTSUNNY   70  66  88 S7        29.89R
GLENWOOD       PTSUNNY   70  66  88 S9        29.92R
APPLETON       MOSUNNY   75  66  73 S6        29.88S
BENSON         CLOUDY    72  70  94 S7        29.90R
ORTONVILLE     PTSUNNY   75  66  73 S5        29.88R
MADISON        MOSUNNY   77  68  73 SW3       29.89R
WILLMAR        FAIR      72  66  83 S3        29.93S
$$
MNZ033>034-036-042>043-049>051-058-059-111500-
   Central Minnesota

CITY           SKY/WX    TMP DP  RH WIND       PRES   REMARKS
ST CLOUD       CLOUDY    68  65  90 S10       29.94S
SAUK CENTRE    CLOUDY    68  66  94 S7        29.92S
PAYNESVILLE    CLOUDY    66  65  99 SE7       29.94R
AITKIN         CLOUDY    70  63  78 S9        29.90S
PINE RIVER     CLOUDY    66  66 100 S7        29.93S
BRAINERD       CLOUDY    72  65  78 S10       29.91S
STAPLES        CLOUDY    66  64  94 S8        29.90R
LONG PRAIRIE   CLOUDY    68  64  88 S7        29.91F FOG
LITTLE FALLS   CLOUDY    66  64  94 SE9       29.91F
LITCHFIELD     CLOUDY    68  68 100 S7        29.95R
BUFFALO        TSTM      66  64  91 S8        29.98R
MAPLE LAKE     TSTM      67  66  96 S5        29.97S
$$
MNZ037-044-045-052-053-111500-
   East Central Minnesota

CITY           SKY/WX    TMP DP  RH WIND       PRES   REMARKS
PRINCETON      CLOUDY    68  66  94 S9        29.96S
MORA           CLOUDY    64  63  94 S12G20    29.95S
CAMBRIDGE      RAIN      70  61  73 S13       29.94S
RUSH CITY      MOSUNNY   68  64  88 S12G21    29.95S
MOOSE LAKE     CLOUDY    64  63  94 S8        29.92S
HINCKLEY       CLOUDY    66  64  94 S8        29.95S
CLOQUET        CLOUDY    64  63  94 S7        29.94S
MCGREGOR       CLOUDY    66  64  94 S9        29.92S
$$
MNZ071>073-080-081-089-090-097-098-111500-
   Southwest Minnesota

CITY           SKY/WX    TMP DP  RH WIND       PRES   REMARKS
MONTEVIDEO     PTSUNNY   75  68  78 SW7       29.90S
GRANITE FALLS  MOSUNNY   73  67  80 S10       29.91S
CANBY          MOSUNNY   75  67  75 SW7G17    29.88R
MARSHALL       PTSUNNY   73  66  78 SW13G18   29.88F
REDWOOD FALLS  PTSUNNY   70  66  87 S15       29.90F
OLIVIA         CLOUDY    70  64  83 S16G23    29.91S
PIPESTONE      MOSUNNY   72  66  83 SW8       29.91F
WINDOM         PTSUNNY   70  64  83 S12G20    29.95F
WORTHINGTON    PTSUNNY   72  66  83 S15G21    29.93F
JACKSON        CLOUDY    70  63  78 S14G21    29.97F
TRACY          MOSUNNY   73  67  82 S13G23    29.90F
SLAYTON        PTSUNNY   72  67  84 CALM      29.92F
$$
MNZ065>067-074>077-082>085-091>093-111500-
   South Central Minnesota

CITY           SKY/WX    TMP DP  RH WIND       PRES   REMARKS
MANKATO        CLOUDY    66  61  82 S15       29.98F
NEW ULM        CLOUDY    68  66  94 S16G23    29.95F
ST JAMES       PTSUNNY   72  64  78 SE12G18   29.98F
FAIRMONT       CLOUDY    66  61  82 S10       30.00S
GLENCOE        TSTM      67  64  88 E7        29.97R VSB 1
FARIBAULT      LGT RAIN  66  61  82 S13G18    30.02F
OWATONNA       LGT RAIN  64  61  88 S12G18    30.05R
WASECA         RAIN      63  55  77 S6        30.05R
ALBERT LEA     LGT RAIN  66  61  82 S9        30.05F
$$
MNZ078>079-086>088-094>096-111500-
   Southeast Minnesota

CITY           SKY/WX    TMP DP  RH WIND       PRES   REMARKS
ROCHESTER      RAIN      64  58  80 S14G24    30.08R
RED WING       RAIN      66  61  82 S10G22    30.04R
STANTON        RAIN      65  61  85 S13       30.00S
DODGE CENTER   LGT RAIN  64  61  88 S14       30.06S
WINONA         RAIN      70  59  68 S3        30.08R
AUSTIN         LGT RAIN  64  59  82 S9        30.09R
PRESTON        LGT RAIN  66  58  76 S13       30.09R
$$
ABBREVIATIONS USED IN REMARKS
   TC - TEMPERATURES IN CELSIUS
  WCI - WIND CHILL INDEX
   HX - HEAT INDEX
  VSB - VISIBILITY
$$



USA.gov is the U.S. government's official web portal to all federal, state and local government web resources and services.